Вернуться в каталог

CZ-6A DEB

АктивенSSO
NORAD 54639·DEBRIS·🇨🇳 China

Запущен Nov 11, 2022 с Taiyuan Satellite Launch Center

Loading…

Ближайшие Пролёты (ближайшие 24 часа)

TLE

СвежийSource: Space-Track

Эпоха: Sep 13, 2026, 23:26 UTC

1 54639U 22151PR  26256.97652869  .00000059  00000-0  54437-4 0  9992
2 54639  98.8169 259.9371 0030130  70.7281 289.7147 14.13274873197845

Отслеживайте CZ-6A DEB в реальном времени с AllMySat

Download on the App Store